STARLINK-11455, 62463

Orbit data source: Space-Track

STARLINK-11455, 62463 is a payload satellite owned by SpaceX/Seattle (US) in LEO that was launched on Tue, 31 Dec 2024 UTC via an FALCON 9 launch vehicle from the Air Force Eastern Test Range (AFETR). Payload-class satellites include a variety of spacecraft equipped with specific instruments for various scientific and technological missions. These include communications satellites like Starlink; space stations such as the ISS; scientific satellites like the Hubble; Earth observation satellites from companies like Planet Labs, Umbra, and HawkEye 360; GPS; miniature CubeSats for education and research; and military/defense satellites.

Loading next visibility...
Identifier
62463, 2024-254B
Orbit
LEO
Country
Flag of USUS
Related business
Manufacturer
SpaceX/Seattle
Mission
Operational Commercial Communications
Bus & Motor
STARLINK V2MD, Unknown motor
Mass
960 kg wet, ~910 kg dry
Launch date (UTC)
2024-12-31 (2 years ago)
Launch vehicle
FALCON 9
Launch site
Air Force Eastern Test Range (AFETR)
Object type
Payload
Rocket body
Debris
Shape & HBR
Box + 2 Pan, 18.1 m
Radar Cross Section
36.964 m², Large (>1 m²)

Expand to show TLE details & history
Last TLE update: 11 hours ago

TLE from 11 hours ago
0 STARLINK-11455
1 62463U 24254B   26258.02517572  .00187769  00000-0  14336-2 0  9997
2 62463  42.9971 162.1918 0001637 264.7640  95.3041 15.70847306 99178
Epoch: 2026-09-15T00:36Z
TLE epoch observation values (Epoch: 2026-09-15T00:36:15.182Z)
Latitude
0.00001°
Longitude
159.1315°
Altitude
356.347 km
Speed
7.697 km/s
True Right ascension
10h 48m 46s
True Declination
0° 00' 00"
Sunlit
Object was in daylight at epoch
Visualization orbit readout
Latitude
Unknown
Longitude
Unknown
Altitude
Unknown
Speed
Unknown
Apparent Right ascension
Unknown
Apparent Declination
Unknown
Sunlit
N/A
Visualization observer readout
Local Sidereal Time
03:44:56
Azimuth
Unknown
Elevation
Unknown
Doppler factor
Unknown
Orbital elements
Apogee altitude
359.559 km
Perigee altitude
357.353 km
Semi-major axis
6,736.593 km
Eccentricity
0.00016
Inclination
42.9971°
RAAN
162.1918°
Arg. of periapsis
264.764°
True anomaly
95.32278°
Mean anomaly
95.3041°
Eccentric anomaly
95.31344°
Mean motion
3.92539 °/min
Orbital period
91.71 mins
BSTAR
0.0014336
Loading maneuver chart data...
Computing Atmospheric mass density...
Loading historical data...
Loading historical data...
Loading historical data...
Loading historical data...
Loading historical data...
Loading historical data...
Loading historical data...

Documentation

Showing up to 5 results
|